Weather History for Houma, LA

Change the Weather History Date:

Wednesday, January 22, 2014

  Actual Average Record
Temperature  
Mean Temperature 46 °F -  
Max Temperature 62 °F 59 °F 82 °F (1949)
Min Temperature 30 °F 40 °F 15 °F (1985)
Degree Days  
Heating Degree Days 19    
Moisture  
Dew Point 28 °F    
Average Humidity 68    
Maximum Humidity 87    
Minimum Humidity 19    
Precipitation  
Precipitation 0.00 in - - ()
Sea Level Pressure  
Sea Level Pressure 30.22 in    
Wind  
Wind Speed 4 mph (NNE)    
Max Wind Speed 10 mph    
Max Gust Speed -    
Visibility 9 miles    
Events      
Averages and records for this station are not official NWS values.
T = Trace of Precipitation, MM = Missing Value Source: NWS Daily Summary

Daily Weather History Graph

Daily Weather History Graph

Search for Another Location

Airport:

Trip Planner

Search our weather history database for the weather conditions in past years. The results will help you decide how hot, cold, wet, or windy it might be!

Date:

Astronomy

Jan. 22, 2014 Rise Set
Actual Time 6:56 AM CST 5:32 PM CST
Civil Twilight 6:31 AM CST 5:57 PM CST
Nautical Twilight 6:02 AM CST 6:26 PM CST
Astronomical Twilight 5:33 AM CST 6:54 PM CST
Moon 11:31 PM CST 10:28 AM CST
Length of Visible Light 11h 26m
Length of Day
10h 35m
Waning Gibbous, 65% of the Moon is Illuminated
Jan 22
Waning Gibbous
Jan 23
Last Quarter
Jan 30
New
Feb 6
First Quarter
Feb 14
Full

Hourly Weather History & Observations

Time (CST) Temp. Windchill Dew Point Humidity Pressure Visibility Wind Dir Wind Speed Gust Speed Precip Events Conditions
12:15 AM 35.1 °F 31.0 °F 24.1 °F 64% 30.23 in 10.0 mi North 4.6 mph - N/A   Clear
12:35 AM 34.7 °F 30.6 °F 23.5 °F 64% 30.23 in 10.0 mi North 4.6 mph - N/A   Clear
12:55 AM 33.4 °F 30.4 °F 25.0 °F 71% 30.24 in 10.0 mi North 3.5 mph - N/A   Clear
1:15 AM 33.6 °F - 24.8 °F 70% 30.23 in 10.0 mi Calm Calm - N/A   Clear
1:35 AM 33.8 °F 30.8 °F 23.2 °F 65% 30.24 in 10.0 mi North 3.5 mph - N/A   Clear
1:55 AM 32.5 °F 28.1 °F 24.6 °F 73% 30.23 in 10.0 mi North 4.6 mph - N/A   Clear
2:15 AM 31.8 °F - 25.3 °F 77% 30.24 in 10.0 mi Calm Calm - N/A   Clear
2:35 AM 32.4 °F 29.1 °F 23.9 °F 71% 30.23 in 10.0 mi North 3.5 mph - N/A   Clear
2:55 AM 32.5 °F 28.1 °F 23.2 °F 68% 30.23 in 10.0 mi North 4.6 mph - N/A   Clear
3:15 AM 33.1 °F 30.0 °F 22.8 °F 66% 30.23 in 10.0 mi NNE 3.5 mph - N/A   Clear
3:55 AM 32.0 °F 26.4 °F 23.0 °F 69% 30.23 in 10.0 mi North 5.8 mph - N/A   Clear
4:15 AM 32.0 °F 26.4 °F 23.0 °F 69% 30.23 in 10.0 mi North 5.8 mph - N/A   Clear
4:35 AM 32.0 °F 27.5 °F 23.0 °F 69% 30.24 in 10.0 mi North 4.6 mph - N/A   Clear
4:55 AM 31.6 °F 27.0 °F 23.4 °F 71% 30.23 in 10.0 mi North 4.6 mph - N/A   Clear
5:50 AM 32.0 °F 27.5 °F 24.8 °F 75% 30.24 in 7.0 mi North 4.6 mph - N/A   Clear
6:50 AM 30.2 °F 26.7 °F 24.8 °F 80% 30.26 in 7.0 mi NE 3.5 mph - N/A   Clear
7:50 AM 32.0 °F - 26.6 °F 80% 30.26 in 7.0 mi Calm Calm - N/A   Clear
8:50 AM 39.2 °F 35.0 °F 24.8 °F 56% 30.27 in 7.0 mi NE 5.8 mph - N/A   Clear
9:50 AM 42.8 °F 39.3 °F 23.0 °F 46% 30.28 in 7.0 mi ENE 5.8 mph - N/A   Clear
10:48 AM 46.4 °F 42.9 °F 23.0 °F 40% 30.28 in 7.0 mi NE 6.9 mph - N/A   Clear
11:50 AM 51.8 °F - 21.2 °F 30% 30.24 in 7.0 mi NE 6.9 mph - N/A   Clear
12:50 PM 44.6 °F 41.4 °F 19.4 °F 37% 30.20 in 7.0 mi NNW 5.8 mph - N/A   Clear
1:50 PM 62.6 °F - 19.4 °F 19% 30.20 in 7.0 mi ENE 4.6 mph - N/A   Clear
2:48 PM 57.2 °F - 24.8 °F 29% 30.18 in 7.0 mi SE 10.4 mph - N/A   Clear
3:48 PM 55.4 °F - 26.6 °F 33% 30.19 in 7.0 mi SE 10.4 mph - N/A   Clear
5:50 PM 44.6 °F 40.7 °F 30.2 °F 57% 30.19 in 7.0 mi South 6.9 mph - N/A   Clear
6:15 PM 44.8 °F 43.3 °F 32.0 °F 61% 30.19 in 10.0 mi South 3.5 mph - N/A   Clear
6:35 PM 43.2 °F 41.5 °F 32.0 °F 65% 30.19 in 10.0 mi South 3.5 mph - N/A   Clear
6:50 PM 42.8 °F 39.3 °F 32.0 °F 66% 30.20 in 7.0 mi SSW 5.8 mph - N/A   Clear
6:55 PM 43.2 °F - 32.0 °F 65% 30.19 in 10.0 mi Calm Calm - N/A   Clear
7:15 PM 42.8 °F 41.1 °F 32.0 °F 66% 30.19 in 10.0 mi South 3.5 mph - N/A   Clear
7:35 PM 39.4 °F - 32.5 °F 76% 30.19 in 7.0 mi Calm Calm - N/A   Clear
7:55 PM 37.6 °F - 32.0 °F 80% 30.20 in 10.0 mi Calm Calm - N/A   Clear
8:15 PM 37.2 °F - 32.0 °F 81% 30.20 in 7.0 mi Calm Calm - N/A   Clear
8:35 PM 35.8 °F - 31.3 °F 84% 30.20 in 7.0 mi Calm Calm - N/A   Clear
8:55 PM 35.2 °F - 31.5 °F 86% 30.20 in 7.0 mi Calm Calm - N/A   Clear
9:15 PM 36.5 °F - 32.4 °F 85% 30.19 in 10.0 mi Calm Calm - N/A   Clear
9:35 PM 37.9 °F - 32.2 °F 80% 30.19 in 10.0 mi Calm Calm - N/A   Clear
9:55 PM 37.6 °F - 33.3 °F 84% 30.19 in 10.0 mi Calm Calm - N/A   Clear
10:15 PM 38.5 °F - 34.7 °F 86% 30.20 in 10.0 mi Calm Calm - N/A   Clear
10:35 PM 39.6 °F - 35.1 °F 84% 30.20 in 10.0 mi Calm Calm - N/A   Clear
10:55 PM 39.2 °F - 34.5 °F 83% 30.20 in 10.0 mi Calm Calm - N/A   Clear
11:15 PM 37.6 °F - 33.6 °F 86% 30.20 in 10.0 mi Calm Calm - N/A   Clear
11:35 PM 37.6 °F - 33.4 °F 85% 30.20 in 10.0 mi Calm Calm - N/A   Clear
11:55 PM 38.3 °F - 34.7 °F 87% 30.20 in 10.0 mi Calm Calm - N/A   Clear